| time (UTC) | temp F | wind direction | speed MPH | gust MPH | rain 1hr in | rain 24hr in | rain mn in | humidity % | barometer mb |
| 20260508175133 | 61 | 263 | 3.0 | 8.0 | 0.00 | 0.03 | 0.03 | 70 | 1010.3 |
| 20260508174635 | 61 | 266 | 3.0 | 9.0 | 0.00 | 0.03 | 0.03 | 71 | 1010.4 |
| 20260508174120 | 61 | 278 | 3.0 | 7.0 | 0.00 | 0.03 | 0.03 | 72 | 1010.4 |
| 20260508173618 | 61 | 203 | 3.0 | 7.0 | 0.00 | 0.03 | 0.03 | 72 | 1010.3 |
| 20260508173115 | 60 | 202 | 3.0 | 9.0 | 0.00 | 0.03 | 0.03 | 71 | 1010.3 |
| 20260508172614 | 60 | 248 | 3.0 | 9.0 | 0.00 | 0.03 | 0.03 | 71 | 1010.5 |
| 20260508172339 | 60 | 213 | 3.0 | 10.0 | 0.00 | 0.03 | 0.03 | 73 | 1010.6 |
| 20260508171605 | 60 | 315 | 3.0 | 10.0 | 0.00 | 0.03 | 0.03 | 72 | 1010.7 |
| 20260508171038 | 59 | 279 | 4.0 | 12.0 | 0.00 | 0.03 | 0.03 | 73 | 1010.8 |
| 20260508170536 | 59 | 288 | 4.0 | 12.0 | 0.00 | 0.03 | 0.03 | 73 | 1010.9 |
| 20260508170021 | 59 | 270 | 4.0 | 10.0 | 0.00 | 0.03 | 0.03 | 72 | 1011.0 |
| 20260508165524 | 60 | 227 | 3.0 | 9.0 | 0.00 | 0.03 | 0.03 | 73 | 1010.9 |
| 20260508164957 | 59 | 228 | 3.0 | 10.0 | 0.00 | 0.03 | 0.03 | 75 | 1011.1 |
| 20260508164432 | 59 | 254 | 3.0 | 10.0 | 0.00 | 0.03 | 0.03 | 73 | 1011.2 |
| 20260508163928 | 59 | 278 | 2.0 | 7.0 | 0.00 | 0.03 | 0.03 | 75 | 1011.4 |
| 20260508163402 | 58 | 210 | 2.0 | 7.0 | 0.00 | 0.03 | 0.03 | 73 | 1011.4 |
| 20260508162858 | 58 | 221 | 2.0 | 7.0 | 0.00 | 0.03 | 0.03 | 74 | 1011.4 |
| 20260508162330 | 57 | 238 | 2.0 | 7.0 | 0.00 | 0.03 | 0.03 | 74 | 1011.4 |
| 20260508161832 | 57 | 248 | 2.0 | 4.0 | 0.00 | 0.03 | 0.03 | 74 | 1011.4 |
| 20260508161307 | 57 | 267 | 2.0 | 4.0 | 0.00 | 0.03 | 0.03 | 75 | 1011.5 |
| 20260508160955 | 57 | 225 | 2.0 | 6.0 | 0.00 | 0.03 | 0.03 | 76 | 1011.4 |
| 20260508160233 | 56 | 182 | 2.0 | 6.0 | 0.00 | 0.03 | 0.03 | 77 | 1011.5 |
| 20260508155708 | 56 | 185 | 1.0 | 5.0 | 0.00 | 0.03 | 0.03 | 79 | 1011.5 |
| 20260508155139 | 55 | 163 | 1.0 | 4.0 | 0.00 | 0.03 | 0.03 | 80 | 1011.5 |
| 20260508154640 | 54 | 138 | 2.0 | 7.0 | 0.00 | 0.03 | 0.03 | 81 | 1011.5 |
| 20260508154111 | 53 | 59 | 2.0 | 7.0 | 0.00 | 0.03 | 0.03 | 80 | 1011.6 |
| 20260508153542 | 54 | 15 | 2.0 | 8.0 | 0.00 | 0.03 | 0.03 | 79 | 1011.5 |
| 20260508153041 | 54 | 22 | 3.0 | 8.0 | 0.00 | 0.03 | 0.03 | 78 | 1011.5 |
| 20260508152515 | 55 | 66 | 3.0 | 7.0 | 0.00 | 0.03 | 0.03 | 77 | 1011.5 |
| 20260508152008 | 56 | 28 | 1.0 | 6.0 | 0.00 | 0.03 | 0.03 | 78 | 1011.5 |
| 20260508151505 | 56 | 279 | 2.0 | 5.0 | 0.00 | 0.03 | 0.03 | 77 | 1011.5 |
| 20260508150935 | 56 | 235 | 2.0 | 5.0 | 0.00 | 0.03 | 0.03 | 76 | 1011.5 |
| 20260508150417 | 56 | 210 | 2.0 | 5.0 | 0.00 | 0.03 | 0.03 | 77 | 1011.5 |
| 20260508145842 | 56 | 198 | 2.0 | 5.0 | 0.00 | 0.03 | 0.03 | 78 | 1011.4 |
| 20260508145340 | 56 | 197 | 3.0 | 6.0 | 0.00 | 0.03 | 0.03 | 77 | 1011.3 |
| 20260508144836 | 56 | 198 | 2.0 | 6.0 | 0.00 | 0.03 | 0.03 | 78 | 1011.4 |
| 20260508144335 | 56 | 217 | 2.0 | 5.0 | 0.00 | 0.03 | 0.03 | 78 | 1011.4 |
| 20260508143806 | 56 | 221 | 3.0 | 5.0 | 0.00 | 0.03 | 0.03 | 80 | 1011.5 |
| 20260508143529 | 56 | 217 | 3.0 | 8.0 | 0.00 | 0.03 | 0.03 | 79 | 1011.3 |
| 20260508142741 | 55 | 223 | 2.0 | 8.0 | 0.00 | 0.03 | 0.03 | 77 | 1011.4 |
| 20260508142238 | 55 | 223 | 2.0 | 6.0 | 0.00 | 0.03 | 0.03 | 78 | 1011.5 |
| 20260508141731 | 54 | 243 | 2.0 | 6.0 | 0.00 | 0.03 | 0.03 | 80 | 1011.4 |
| 20260508141224 | 54 | 259 | 2.0 | 6.0 | 0.00 | 0.03 | 0.03 | 79 | 1011.5 |
| 20260508140659 | 54 | 265 | 3.0 | 8.0 | 0.00 | 0.03 | 0.03 | 79 | 1011.4 |
| 20260508140154 | 53 | 313 | 3.0 | 8.0 | 0.00 | 0.03 | 0.03 | 79 | 1011.4 |
| 20260508135628 | 53 | 275 | 3.0 | 7.0 | 0.00 | 0.03 | 0.03 | 80 | 1011.6 |
| 20260508135104 | 53 | 242 | 3.0 | 7.0 | 0.00 | 0.03 | 0.03 | 80 | 1011.5 |
| 20260508134804 | 53 | 257 | 3.0 | 9.0 | 0.00 | 0.03 | 0.03 | 80 | 1011.6 |
| 20260508134030 | 53 | 323 | 2.0 | 9.0 | 0.00 | 0.03 | 0.03 | 80 | 1011.6 |
| 20260508133506 | 53 | 254 | 2.0 | 9.0 | 0.00 | 0.03 | 0.03 | 81 | 1011.6 |
| 20260508132938 | 52 | 265 | 3.0 | 9.0 | 0.00 | 0.03 | 0.03 | 80 | 1011.6 |
| 20260508132658 | 52 | 262 | 3.0 | 9.0 | 0.00 | 0.03 | 0.03 | 81 | 1011.6 |
| 20260508131908 | 52 | 257 | 3.0 | 8.0 | 0.00 | 0.03 | 0.03 | 81 | 1011.7 |
| 20260508131346 | 52 | 240 | 3.0 | 9.0 | 0.00 | 0.03 | 0.03 | 82 | 1011.7 |
| 20260508130828 | 51 | 264 | 3.0 | 9.0 | 0.00 | 0.03 | 0.03 | 82 | 1011.6 |
| 20260508130332 | 51 | 262 | 3.0 | 8.0 | 0.00 | 0.03 | 0.03 | 83 | 1011.7 |
| 20260508125828 | 51 | 252 | 3.0 | 8.0 | 0.00 | 0.03 | 0.03 | 84 | 1011.7 |
| 20260508125308 | 51 | 275 | 3.0 | 7.0 | 0.01 | 0.03 | 0.03 | 86 | 1011.7 |
| 20260508124758 | 51 | 277 | 2.0 | 7.0 | 0.03 | 0.03 | 0.03 | 87 | 1011.7 |
| 20260508124255 | 50 | 215 | 2.0 | 7.0 | 0.03 | 0.03 | 0.03 | 87 | 1011.8 |
| 20260508123751 | 50 | 250 | 2.0 | 6.0 | 0.03 | 0.03 | 0.03 | 87 | 1011.8 |
| 20260508123225 | 50 | 249 | 2.0 | 5.0 | 0.03 | 0.03 | 0.03 | 88 | 1011.7 |
| 20260508122726 | 49 | 279 | 2.0 | 5.0 | 0.03 | 0.03 | 0.03 | 88 | 1011.6 |
| 20260508122202 | 49 | 197 | 2.0 | 4.0 | 0.03 | 0.03 | 0.03 | 88 | 1011.6 |
| 20260508121702 | 49 | 237 | 1.0 | 4.0 | 0.03 | 0.03 | 0.03 | 86 | 1011.7 |
| 20260508121137 | 49 | 256 | 1.0 | 3.0 | 0.03 | 0.03 | 0.03 | 86 | 1011.5 |
| 20260508120633 | 49 | 257 | 1.0 | 4.0 | 0.03 | 0.03 | 0.03 | 85 | 1011.4 |
| 20260508120115 | 49 | 257 | 2.0 | 4.0 | 0.03 | 0.03 | 0.03 | 84 | 1011.5 |
| 20260508115615 | 49 | 249 | 3.0 | 4.0 | 0.03 | 0.03 | 0.03 | 82 | 1011.4 |
| 20260508115116 | 50 | 192 | 3.0 | 13.0 | 0.01 | 0.01 | 0.01 | 81 | 1011.3 |
| 20260508114614 | 50 | 238 | 2.0 | 13.0 | 0.00 | 0.00 | 0.00 | 81 | 1011.7 |
| 20260508114056 | 50 | 246 | 2.0 | 5.0 | 0.00 | 0.00 | 0.00 | 80 | 1011.5 |
| 20260508113548 | 50 | 246 | 2.0 | 5.0 | 0.00 | 0.00 | 0.00 | 79 | 1011.4 |
| 20260508113313 | 50 | 219 | 2.0 | 6.0 | 0.00 | 0.00 | 0.00 | 79 | 1010.9 |
| 20260508112524 | 50 | 271 | 3.0 | 6.0 | 0.00 | 0.00 | 0.00 | 78 | 1010.8 |
| 20260508112023 | 51 | 249 | 3.0 | 9.0 | 0.00 | 0.00 | 0.00 | 78 | 1010.9 |
| 20260508111503 | 51 | 178 | 2.0 | 8.0 | 0.00 | 0.00 | 0.00 | 78 | 1010.7 |
| 20260508111002 | 51 | 225 | 2.0 | 7.0 | 0.00 | 0.00 | 0.00 | 78 | 1010.8 |
| 20260508110441 | 51 | 229 | 3.0 | 8.0 | 0.00 | 0.00 | 0.00 | 78 | 1010.7 |
| 20260508105930 | 51 | 267 | 3.0 | 8.0 | 0.00 | 0.00 | 0.00 | 78 | 1010.8 |
| 20260508105651 | 51 | 259 | 3.0 | 8.0 | 0.00 | 0.00 | 0.00 | 78 | 1010.6 |
| 20260508104910 | 51 | 239 | 3.0 | 8.0 | 0.00 | 0.00 | 0.00 | 78 | 1010.7 |
| 20260508104352 | 51 | 242 | 3.0 | 8.0 | 0.00 | 0.00 | 0.00 | 79 | 1010.6 |
| 20260508103853 | 51 | 254 | 3.0 | 8.0 | 0.00 | 0.00 | 0.00 | 78 | 1010.5 |
| 20260508103351 | 51 | 239 | 3.0 | 10.0 | 0.00 | 0.00 | 0.00 | 79 | 1010.6 |
| 20260508102854 | 51 | 267 | 3.0 | 10.0 | 0.00 | 0.00 | 0.00 | 80 | 1010.7 |
| 20260508102328 | 50 | 188 | 3.0 | 8.0 | 0.00 | 0.00 | 0.00 | 81 | 1010.6 |
| 20260508101816 | 50 | 251 | 4.0 | 9.0 | 0.00 | 0.00 | 0.00 | 81 | 1010.6 |
| 20260508101319 | 50 | 207 | 4.0 | 9.0 | 0.00 | 0.00 | 0.00 | 81 | 1010.6 |
| 20260508100821 | 50 | 250 | 4.0 | 9.0 | 0.00 | 0.00 | 0.00 | 82 | 1010.6 |
| 20260508100258 | 49 | 240 | 3.0 | 8.0 | 0.00 | 0.00 | 0.00 | 82 | 1010.6 |
| 20260508095732 | 49 | 180 | 3.0 | 7.0 | 0.00 | 0.00 | 0.00 | 83 | 1010.5 |
| 20260508095223 | 49 | 252 | 3.0 | 8.0 | 0.00 | 0.00 | 0.00 | 83 | 1010.7 |
| 20260508094721 | 49 | 224 | 3.0 | 8.0 | 0.00 | 0.00 | 0.00 | 83 | 1010.6 |
| 20260508094156 | 49 | 252 | 4.0 | 8.0 | 0.00 | 0.00 | 0.00 | 82 | 1010.6 |
| 20260508093633 | 49 | 262 | 4.0 | 12.0 | 0.00 | 0.00 | 0.00 | 83 | 1010.7 |
| 20260508093328 | 49 | 237 | 4.0 | 12.0 | 0.00 | 0.00 | 0.00 | 83 | 1010.6 |
| 20260508092603 | 49 | 212 | 3.0 | 9.0 | 0.00 | 0.00 | 0.00 | 84 | 1010.7 |
| 20260508092059 | 48 | 202 | 3.0 | 9.0 | 0.00 | 0.00 | 0.00 | 84 | 1010.7 |
| 20260508091557 | 48 | 243 | 3.0 | 6.0 | 0.00 | 0.00 | 0.00 | 85 | 1010.8 |
| 20260508091050 | 48 | 217 | 3.0 | 8.0 | 0.00 | 0.00 | 0.00 | 85 | 1010.7 |
| 20260508090553 | 48 | 251 | 3.0 | 7.0 | 0.00 | 0.00 | 0.00 | 85 | 1010.7 |
| 20260508090023 | 48 | 192 | 3.0 | 7.0 | 0.00 | 0.00 | 0.00 | 85 | 1010.6 |
| 20260508085459 | 48 | 234 | 2.0 | 8.0 | 0.00 | 0.00 | 0.00 | 85 | 1010.7 |
| 20260508084932 | 48 | 232 | 3.0 | 8.0 | 0.00 | 0.00 | 0.00 | 84 | 1010.7 |
| 20260508084402 | 48 | 227 | 3.0 | 7.0 | 0.00 | 0.00 | 0.00 | 84 | 1010.8 |
| 20260508083851 | 48 | 265 | 3.0 | 7.0 | 0.00 | 0.00 | 0.00 | 84 | 1010.8 |
| 20260508083351 | 48 | 237 | 3.0 | 8.0 | 0.00 | 0.00 | 0.00 | 84 | 1010.8 |
| 20260508082832 | 48 | 259 | 3.0 | 8.0 | 0.00 | 0.00 | 0.00 | 84 | 1010.7 |
| 20260508082257 | 48 | 217 | 3.0 | 8.0 | 0.00 | 0.00 | 0.00 | 84 | 1010.8 |
| 20260508081733 | 48 | 243 | 4.0 | 8.0 | 0.00 | 0.00 | 0.00 | 84 | 1010.9 |
| 20260508081430 | 48 | 215 | 3.0 | 8.0 | 0.00 | 0.00 | 0.00 | 83 | 1010.8 |
| 20260508080703 | 48 | 248 | 3.0 | 8.0 | 0.00 | 0.00 | 0.00 | 83 | 1011.0 |
| 20260508080201 | 48 | 267 | 4.0 | 8.0 | 0.00 | 0.00 | 0.00 | 83 | 1011.0 |
| 20260508075635 | 48 | 226 | 4.0 | 11.0 | 0.00 | 0.00 | 0.00 | 83 | 1011.0 |
| 20260508075130 | 48 | 246 | 4.0 | 11.0 | 0.00 | 0.00 | 0.00 | 83 | 1011.0 |
| 20260508074603 | 49 | 251 | 4.0 | 12.0 | 0.00 | 0.00 | 0.00 | 83 | 1011.0 |
| 20260508074100 | 49 | 271 | 3.0 | 12.0 | 0.00 | 0.00 | 0.00 | 83 | 1011.0 |
| 20260508073558 | 49 | 243 | 3.0 | 8.0 | 0.00 | 0.00 | 0.00 | 82 | 1011.0 |
| 20260508073057 | 49 | 227 | 4.0 | 8.0 | 0.00 | 0.00 | 0.00 | 82 | 1011.0 |
| 20260508072543 | 49 | 240 | 4.0 | 11.0 | 0.00 | 0.00 | 0.00 | 82 | 1011.0 |
| 20260508072046 | 49 | 248 | 4.0 | 11.0 | 0.00 | 0.00 | 0.00 | 81 | 1011.1 |
| 20260508071520 | 49 | 219 | 4.0 | 13.0 | 0.00 | 0.00 | 0.00 | 81 | 1011.1 |
| 20260508070951 | 49 | 236 | 5.0 | 13.0 | 0.00 | 0.00 | 0.00 | 81 | 1011.1 |
| 20260508070450 | 49 | 278 | 4.0 | 11.0 | 0.00 | 0.00 | 0.00 | 81 | 1011.3 |
| 20260508065923 | 49 | 265 | 4.0 | 11.0 | 0.00 | 0.00 | 0.00 | 81 | 1011.2 |
| 20260508065420 | 49 | 236 | 4.0 | 10.0 | 0.00 | 0.00 | 0.00 | 81 | 1011.1 |
| 20260508064915 | 49 | 245 | 4.0 | 12.0 | 0.00 | 0.00 | 0.00 | 81 | 1011.1 |
| 20260508064349 | 49 | 211 | 5.0 | 12.0 | 0.00 | 0.00 | 0.00 | 80 | 1011.2 |
| 20260508063831 | 49 | 243 | 5.0 | 12.0 | 0.00 | 0.00 | 0.00 | 80 | 1011.3 |
| 20260508063256 | 49 | 234 | 5.0 | 10.0 | 0.00 | 0.00 | 0.00 | 79 | 1011.3 |
| 20260508062753 | 49 | 245 | 4.0 | 10.0 | 0.00 | 0.00 | 0.00 | 79 | 1011.4 |
| 20260508062227 | 50 | 243 | 4.0 | 11.0 | 0.00 | 0.00 | 0.00 | 78 | 1011.3 |
| 20260508061729 | 50 | 258 | 5.0 | 11.0 | 0.00 | 0.00 | 0.00 | 78 | 1011.4 |
| 20260508061231 | 50 | 247 | 4.0 | 11.0 | 0.00 | 0.00 | 0.00 | 77 | 1011.3 |
| 20260508060727 | 50 | 265 | 4.0 | 11.0 | 0.00 | 0.00 | 0.00 | 77 | 1011.4 |
| 20260508060159 | 50 | 242 | 5.0 | 11.0 | 0.00 | 0.00 | 0.00 | 76 | 1011.4 |
| 20260508055657 | 50 | 236 | 4.0 | 12.0 | 0.00 | 0.00 | 0.00 | 76 | 1011.3 |
| 20260508055132 | 50 | 261 | 4.0 | 12.0 | 0.00 | 0.00 | 0.00 | 76 | 1011.4 |
| 20260508054608 | 51 | 257 | 4.0 | 10.0 | 0.00 | 0.00 | 0.00 | 76 | 1011.4 |
| 20260508054324 | 51 | 247 | 4.0 | 11.0 | 0.00 | 0.00 | 0.00 | 76 | 1011.4 |
| 20260508053817 | 51 | 255 | 4.0 | 11.0 | 0.00 | 0.00 | 0.00 | 75 | 1011.5 |
| 20260508053058 | 51 | 202 | 4.0 | 10.0 | 0.00 | 0.00 | 0.00 | 75 | 1011.5 |
| 20260508053024 | 51 | 238 | 4.0 | 10.0 | 0.00 | 0.00 | 0.00 | 74 | 1011.7 |
| 20260508052253 | 50 | 214 | 3.0 | 8.0 | 0.00 | 0.00 | 0.00 | 74 | 1011.6 |
| 20260508051504 | 50 | 218 | 2.0 | 5.0 | 0.00 | 0.00 | 0.00 | 74 | 1011.6 |
| 20260508050927 | 51 | 224 | 2.0 | 5.0 | 0.00 | 0.00 | 0.00 | 74 | 1011.6 |
| 20260508050424 | 51 | 244 | 2.0 | 7.0 | 0.00 | 0.00 | 0.00 | 74 | 1011.6 |
| 20260508045923 | 51 | 237 | 2.0 | 7.0 | 0.00 | 0.00 | 0.00 | 74 | 1011.7 |
| 20260508045407 | 51 | 241 | 2.0 | 6.0 | 0.00 | 0.00 | 0.00 | 74 | 1011.7 |
| 20260508044906 | 51 | 239 | 2.0 | 4.0 | 0.00 | 0.00 | 0.00 | 74 | 1011.6 |
| 20260508044342 | 51 | 242 | 2.0 | 4.0 | 0.00 | 0.00 | 0.00 | 74 | 1011.6 |
| 20260508043833 | 51 | 244 | 2.0 | 6.0 | 0.00 | 0.00 | 0.00 | 74 | 1011.6 |
| 20260508043307 | 51 | 269 | 2.0 | 5.0 | 0.00 | 0.00 | 0.00 | 73 | 1011.7 |
| 20260508042758 | 51 | 248 | 2.0 | 7.0 | 0.00 | 0.00 | 0.00 | 73 | 1011.7 |
| 20260508042255 | 51 | 187 | 3.0 | 7.0 | 0.00 | 0.00 | 0.00 | 73 | 1011.7 |
| 20260508041758 | 51 | 217 | 2.0 | 8.0 | 0.00 | 0.00 | 0.00 | 73 | 1011.7 |
| 20260508041229 | 51 | 227 | 2.0 | 8.0 | 0.00 | 0.00 | 0.00 | 73 | 1011.8 |
| 20260508040729 | 51 | 250 | 3.0 | 9.0 | 0.00 | 0.00 | 0.00 | 73 | 1011.8 |
| 20260508040201 | 51 | 265 | 3.0 | 9.0 | 0.00 | 0.00 | 0.00 | 73 | 1011.9 |
| 20260508035700 | 51 | 223 | 3.0 | 9.0 | 0.00 | 0.00 | 0.00 | 72 | 1011.9 |
| 20260508035158 | 51 | 250 | 3.0 | 7.0 | 0.00 | 0.00 | 0.00 | 72 | 1011.9 |
| 20260508034633 | 51 | 259 | 3.0 | 7.0 | 0.00 | 0.00 | 0.00 | 72 | 1011.9 |
| 20260508034103 | 51 | 209 | 2.0 | 8.0 | 0.00 | 0.00 | 0.00 | 72 | 1011.9 |
| 20260508033602 | 51 | 241 | 3.0 | 9.0 | 0.00 | 0.00 | 0.00 | 71 | 1011.9 |
| 20260508033058 | 51 | 235 | 3.0 | 9.0 | 0.00 | 0.00 | 0.00 | 71 | 1011.9 |
| 20260508032554 | 51 | 227 | 3.0 | 8.0 | 0.00 | 0.00 | 0.00 | 71 | 1011.9 |
| 20260508032030 | 51 | 244 | 4.0 | 8.0 | 0.00 | 0.00 | 0.00 | 71 | 1011.9 |
| 20260508031508 | 52 | 227 | 4.0 | 13.0 | 0.00 | 0.00 | 0.00 | 72 | 1011.9 |
| 20260508030929 | 52 | 239 | 4.0 | 13.0 | 0.00 | 0.00 | 0.00 | 71 | 1011.9 |
| 20260508030426 | 52 | 247 | 4.0 | 10.0 | 0.00 | 0.00 | 0.00 | 70 | 1012.0 |
| 20260508025908 | 52 | 249 | 4.0 | 16.0 | 0.00 | 0.00 | 0.00 | 70 | 1011.9 |
| 20260508025333 | 52 | 250 | 4.0 | 16.0 | 0.00 | 0.00 | 0.00 | 70 | 1012.1 |
| 20260508024833 | 52 | 246 | 4.0 | 10.0 | 0.00 | 0.00 | 0.00 | 70 | 1012.1 |
| 20260508024304 | 52 | 257 | 4.0 | 10.0 | 0.00 | 0.00 | 0.00 | 70 | 1012.1 |
| 20260508023737 | 52 | 240 | 4.0 | 12.0 | 0.00 | 0.00 | 0.00 | 70 | 1012.2 |
| 20260508023235 | 52 | 257 | 4.0 | 9.0 | 0.00 | 0.00 | 0.00 | 69 | 1012.1 |
| 20260508022708 | 52 | 229 | 4.0 | 12.0 | 0.00 | 0.00 | 0.00 | 69 | 1012.1 |
| 20260508022205 | 52 | 256 | 5.0 | 16.0 | 0.00 | 0.00 | 0.00 | 68 | 1012.1 |
| 20260508021637 | 53 | 257 | 5.0 | 16.0 | 0.00 | 0.00 | 0.00 | 66 | 1012.0 |
| 20260508021136 | 53 | 202 | 6.0 | 14.0 | 0.00 | 0.00 | 0.00 | 66 | 1011.9 |
| 20260508020632 | 53 | 219 | 7.0 | 14.0 | 0.00 | 0.00 | 0.00 | 64 | 1011.9 |
| 20260508020129 | 53 | 244 | 6.0 | 14.0 | 0.00 | 0.00 | 0.00 | 64 | 1011.9 |
| 20260508015601 | 53 | 267 | 6.0 | 14.0 | 0.00 | 0.00 | 0.00 | 63 | 1011.8 |
| 20260508015059 | 53 | 255 | 7.0 | 14.0 | 0.00 | 0.00 | 0.00 | 63 | 1011.9 |
| 20260508014531 | 54 | 246 | 7.0 | 15.0 | 0.00 | 0.00 | 0.00 | 62 | 1011.8 |
| 20260508014028 | 54 | 261 | 5.0 | 14.0 | 0.00 | 0.00 | 0.00 | 62 | 1011.6 |
| 20260508013519 | 54 | 267 | 3.0 | 12.0 | 0.00 | 0.00 | 0.00 | 63 | 1011.6 |
| 20260508013010 | 53 | 93 | 2.0 | 12.0 | 0.00 | 0.00 | 0.00 | 64 | 1011.7 |
| 20260508012446 | 53 | 270 | 1.0 | 3.0 | 0.00 | 0.00 | 0.00 | 65 | 1011.6 |
| 20260508011918 | 53 | 286 | 0.0 | 2.0 | 0.00 | 0.00 | 0.00 | 64 | 1011.4 |
| 20260508011414 | 52 | 294 | 0.0 | 0.0 | 0.00 | 0.00 | 0.00 | 64 | 1011.4 |
| 20260508010851 | 52 | 294 | 0.0 | 0.0 | 0.00 | 0.00 | 0.00 | 63 | 1011.3 |
| 20260508010320 | 52 | 294 | 0.0 | 0.0 | 0.00 | 0.00 | 0.00 | 62 | 1011.3 |
| 20260508005820 | 52 | 294 | 0.0 | 0.0 | 0.00 | 0.00 | 0.00 | 61 | 1011.3 |
| 20260508005311 | 52 | 294 | 0.0 | 0.0 | 0.00 | 0.00 | 0.00 | 61 | 1011.2 |
| 20260508004744 | 53 | 294 | 0.0 | 0.0 | 0.00 | 0.00 | 0.00 | 61 | 1011.3 |
| 20260508004241 | 53 | 294 | 0.0 | 0.0 | 0.00 | 0.00 | 0.00 | 61 | 1011.2 |
| 20260508003729 | 53 | 294 | 0.0 | 0.0 | 0.00 | 0.00 | 0.00 | 60 | 1011.2 |
| 20260508003231 | 53 | 294 | 0.0 | 0.0 | 0.00 | 0.00 | 0.00 | 60 | 1011.2 |
| 20260508002703 | 54 | 294 | 0.0 | 0.0 | 0.00 | 0.00 | 0.00 | 60 | 1011.2 |
| 20260508002201 | 54 | 294 | 0.0 | 0.0 | 0.00 | 0.00 | 0.00 | 59 | 1011.2 |
| 20260508001657 | 54 | 294 | 0.0 | 0.0 | 0.00 | 0.00 | 0.00 | 57 | 1011.0 |
| 20260508001156 | 54 | 294 | 0.0 | 0.0 | 0.00 | 0.00 | 0.00 | 56 | 1011.1 |
| 20260508000651 | 55 | 294 | 0.0 | 3.0 | 0.00 | 0.00 | 0.00 | 55 | 1011.0 |
| 20260508000145 | 55 | 294 | 1.0 | 3.0 | 0.00 | 0.00 | 0.00 | 54 | 1011.1 |
| 20260507235639 | 55 | 294 | 1.0 | 4.0 | 0.00 | 0.00 | 0.00 | 52 | 1011.0 |
| 20260507235139 | 56 | 294 | 1.0 | 4.0 | 0.00 | 0.00 | 0.00 | 53 | 1011.0 |
| 20260507234615 | 56 | 288 | 1.0 | 3.0 | 0.00 | 0.00 | 0.00 | 50 | 1011.0 |
| 20260507234043 | 56 | 298 | 2.0 | 9.0 | 0.00 | 0.00 | 0.00 | 51 | 1011.0 |
| 20260507233516 | 56 | 315 | 2.0 | 9.0 | 0.00 | 0.00 | 0.00 | 51 | 1011.0 |
| 20260507233014 | 56 | 309 | 2.0 | 7.0 | 0.00 | 0.00 | 0.00 | 54 | 1011.0 |
| 20260507232513 | 56 | 323 | 2.0 | 7.0 | 0.00 | 0.00 | 0.00 | 54 | 1011.1 |
| 20260507231941 | 57 | 281 | 3.0 | 8.0 | 0.00 | 0.00 | 0.00 | 53 | 1011.1 |
| 20260507231436 | 57 | 277 | 3.0 | 8.0 | 0.00 | 0.00 | 0.00 | 50 | 1011.1 |
| 20260507230937 | 57 | 307 | 2.0 | 8.0 | 0.00 | 0.00 | 0.00 | 49 | 1011.2 |
| 20260507230408 | 57 | 335 | 2.0 | 8.0 | 0.00 | 0.00 | 0.00 | 52 | 1011.1 |
| 20260507225905 | 57 | 304 | 2.0 | 6.0 | 0.00 | 0.00 | 0.00 | 51 | 1011.2 |
| 20260507225343 | 57 | 292 | 3.0 | 6.0 | 0.00 | 0.00 | 0.00 | 52 | 1011.2 |
| 20260507224841 | 57 | 324 | 4.0 | 11.0 | 0.00 | 0.00 | 0.00 | 49 | 1011.3 |
| 20260507224314 | 57 | 304 | 4.0 | 11.0 | 0.00 | 0.00 | 0.00 | 49 | 1011.3 |
| 20260507223814 | 58 | 285 | 4.0 | 11.0 | 0.00 | 0.00 | 0.00 | 47 | 1011.3 |
| 20260507223254 | 58 | 331 | 3.0 | 11.0 | 0.00 | 0.00 | 0.00 | 51 | 1011.4 |
| 20260507222752 | 58 | 311 | 3.0 | 7.0 | 0.00 | 0.00 | 0.00 | 51 | 1011.4 |
| 20260507222251 | 58 | 306 | 3.0 | 8.0 | 0.00 | 0.00 | 0.00 | 50 | 1011.3 |
| 20260507221753 | 58 | 292 | 4.0 | 15.0 | 0.00 | 0.00 | 0.00 | 48 | 1011.5 |
| 20260507221227 | 58 | 319 | 5.0 | 15.0 | 0.00 | 0.00 | 0.00 | 49 | 1011.4 |
| 20260507220708 | 58 | 266 | 5.0 | 12.0 | 0.00 | 0.00 | 0.00 | 48 | 1011.3 |
| 20260507220207 | 58 | 298 | 5.0 | 12.0 | 0.00 | 0.00 | 0.00 | 46 | 1011.2 |
| 20260507215642 | 58 | 335 | 5.0 | 12.0 | 0.00 | 0.00 | 0.00 | 47 | 1011.1 |
| 20260507215137 | 58 | 261 | 5.0 | 12.0 | 0.00 | 0.00 | 0.00 | 49 | 1011.2 |
| 20260507214635 | 58 | 284 | 5.0 | 12.0 | 0.00 | 0.00 | 0.00 | 49 | 1011.2 |
| 20260507214134 | 58 | 273 | 5.0 | 12.0 | 0.00 | 0.00 | 0.00 | 49 | 1011.3 |
| 20260507213633 | 58 | 288 | 5.0 | 14.0 | 0.00 | 0.00 | 0.00 | 48 | 1011.2 |
| 20260507213131 | 58 | 311 | 5.0 | 14.0 | 0.00 | 0.00 | 0.00 | 47 | 1011.2 |
| 20260507212634 | 58 | 309 | 4.0 | 12.0 | 0.00 | 0.00 | 0.00 | 51 | 1011.2 |
| 20260507212117 | 58 | 282 | 5.0 | 11.0 | 0.00 | 0.00 | 0.00 | 50 | 1011.2 |
| 20260507211554 | 59 | 301 | 4.0 | 11.0 | 0.00 | 0.00 | 0.00 | 48 | 1011.2 |
| 20260507211033 | 59 | 311 | 5.0 | 12.0 | 0.00 | 0.00 | 0.00 | 49 | 1011.1 |
| 20260507210506 | 58 | 292 | 4.0 | 12.0 | 0.00 | 0.00 | 0.00 | 50 | 1011.2 |
| 20260507210001 | 59 | 319 | 4.0 | 10.0 | 0.00 | 0.00 | 0.00 | 49 | 1011.1 |
| 20260507205502 | 58 | 271 | 4.0 | 13.0 | 0.00 | 0.00 | 0.00 | 50 | 1011.2 |
| 20260507204937 | 58 | 261 | 5.0 | 13.0 | 0.00 | 0.00 | 0.00 | 48 | 1011.1 |
| 20260507204417 | 58 | 300 | 5.0 | 13.0 | 0.00 | 0.00 | 0.00 | 48 | 1011.2 |
| 20260507203852 | 59 | 49 | 4.0 | 11.0 | 0.00 | 0.00 | 0.00 | 48 | 1011.3 |
| 20260507203348 | 59 | 286 | 4.0 | 12.0 | 0.00 | 0.00 | 0.00 | 50 | 1011.2 |
| 20260507202848 | 58 | 265 | 5.0 | 12.0 | 0.00 | 0.00 | 0.00 | 49 | 1011.2 |
| 20260507202347 | 58 | 275 | 5.0 | 12.0 | 0.00 | 0.00 | 0.00 | 48 | 1011.2 |
| 20260507201849 | 58 | 273 | 6.0 | 12.0 | 0.00 | 0.00 | 0.00 | 49 | 1011.3 |
| 20260507201321 | 58 | 307 | 6.0 | 11.0 | 0.00 | 0.00 | 0.00 | 48 | 1011.3 |
| 20260507200754 | 58 | 311 | 6.0 | 14.0 | 0.00 | 0.00 | 0.00 | 47 | 1011.3 |
| 20260507200228 | 58 | 289 | 5.0 | 14.0 | 0.00 | 0.00 | 0.00 | 47 | 1011.3 |
| 20260507195723 | 58 | 285 | 4.0 | 13.0 | 0.00 | 0.00 | 0.00 | 48 | 1011.1 |
| 20260507195156 | 58 | 311 | 5.0 | 13.0 | 0.00 | 0.00 | 0.00 | 48 | 1011.2 |
| 20260507194655 | 58 | 321 | 5.0 | 13.0 | 0.00 | 0.00 | 0.00 | 49 | 1011.3 |
| 20260507194120 | 58 | 288 | 4.0 | 11.0 | 0.00 | 0.00 | 0.00 | 51 | 1011.3 |
| 20260507193619 | 58 | 0 | 4.0 | 14.0 | 0.00 | 0.00 | 0.00 | 51 | 1011.4 |
| 20260507193122 | 58 | 254 | 5.0 | 10.0 | 0.00 | 0.00 | 0.00 | 53 | 1011.4 |
| 20260507192607 | 57 | 279 | 5.0 | 16.0 | 0.00 | 0.00 | 0.00 | 52 | 1011.5 |
| 20260507192103 | 57 | 315 | 6.0 | 12.0 | 0.00 | 0.00 | 0.00 | 54 | 1011.4 |
| 20260507191602 | 56 | 271 | 5.0 | 12.0 | 0.00 | 0.00 | 0.00 | 55 | 1011.4 |
| 20260507191033 | 56 | 267 | 3.0 | 10.0 | 0.00 | 0.00 | 0.00 | 55 | 1011.4 |
| 20260507190512 | 55 | 281 | 2.0 | 6.0 | 0.00 | 0.00 | 0.00 | 59 | 1011.6 |
| 20260507185941 | 55 | 323 | 2.0 | 5.0 | 0.00 | 0.00 | 0.00 | 60 | 1011.5 |
| 20260507185412 | 54 | 302 | 3.0 | 9.0 | 0.00 | 0.00 | 0.00 | 60 | 1011.7 |
| 20260507184909 | 54 | 296 | 3.0 | 9.0 | 0.00 | 0.00 | 0.00 | 60 | 1011.7 |
| 20260507184344 | 55 | 309 | 2.0 | 8.0 | 0.00 | 0.00 | 0.00 | 59 | 1011.7 |
| 20260507183822 | 55 | 330 | 2.0 | 7.0 | 0.00 | 0.00 | 0.00 | 61 | 1011.7 |
| 20260507183250 | 55 | 247 | 2.0 | 7.0 | 0.00 | 0.00 | 0.00 | 60 | 1011.7 |
| 20260507182748 | 55 | 347 | 2.0 | 6.0 | 0.00 | 0.00 | 0.00 | 60 | 1011.7 |
| 20260507182220 | 55 | 355 | 2.0 | 8.0 | 0.00 | 0.00 | 0.00 | 61 | 1011.6 |
| 20260507181717 | 55 | 308 | 3.0 | 8.0 | 0.00 | 0.00 | 0.00 | 61 | 1011.6 |
| 20260507181152 | 55 | 279 | 3.0 | 9.0 | 0.00 | 0.00 | 0.00 | 60 | 1011.7 |
| 20260507180627 | 56 | 341 | 3.0 | 9.0 | 0.00 | 0.00 | 0.00 | 59 | 1011.7 |
| 20260507180120 | 55 | 287 | 3.0 | 9.0 | 0.00 | 0.00 | 0.00 | 61 | 1011.7 |
| 20260507175556 | 55 | 338 | 3.0 | 9.0 | 0.00 | 0.00 | 0.00 | 62 | 1011.6 |